DW5164 Weather Reports


time (UTC)temp
C
wind
direction
speed
KPH
gust
KPH
rain 1hr
cm
rain 24hr
cm
rain mn
cm
humidity
%
barometer
mb
20260904092438 28 75 3.2 8.0 0.00 0.00 0.00 66 1018.1
20260904091431 28 162 3.2 4.8 0.00 0.00 0.00 67 1018.2
20260904090431 28 123 4.8 8.0 0.00 0.00 0.00 67 1018.3
20260904085931 27 152 3.2 11.3 0.00 0.00 0.00 68 1018.3
20260904085432 27 79 3.2 4.8 0.00 0.00 0.00 69 1018.3
20260904084931 27 143 3.2 8.0 0.00 0.00 0.00 68 1018.2
20260904084432 27 92 3.2 9.7 0.00 0.00 0.00 67 1018.3
20260904083931 27 114 4.8 11.3 0.00 0.00 0.00 68 1018.3
20260904083431 27 74 3.2 8.0 0.00 0.00 0.00 69 1018.3
20260904082933 27 111 4.8 11.3 0.00 0.00 0.00 70 1018.3
20260904082436 26 89 4.8 9.7 0.00 0.00 0.00 69 1018.3
20260904080431 26 90 4.8 9.7 0.00 0.00 0.00 74 1018.2
20260904075931 26 82 3.2 9.7 0.00 0.00 0.00 75 1018.2
20260904074947 25 64 3.2 8.0 0.00 0.00 0.00 75 1018.2
20260904074436 25 107 3.2 12.9 0.00 0.00 0.00 74 1018.2
20260904073931 25 94 8.0 11.3 0.00 0.00 0.00 75 1018.1
20260904073431 25 115 3.2 4.8 0.00 0.00 0.00 78 1018.0
20260904072930 25 78 3.2 8.0 0.00 0.00 0.00 78 1018.0
20260904072449 25 71 4.8 9.7 0.00 0.00 0.00 78 1018.0
20260904070931 23 128 1.6 4.8 0.00 0.00 0.00 80 1017.9
20260904065930 23 92 4.8 8.0 0.00 0.00 0.00 82 1017.9
20260904064930 22 115 4.8 8.0 0.00 0.00 0.00 82 1017.9
20260904064430 22 118 3.2 8.0 0.00 0.00 0.00 83 1018.0
20260904063931 22 63 4.8 8.0 0.00 0.00 0.00 83 1018.0
20260904063431 22 81 3.2 8.0 0.00 0.00 0.00 83 1018.0
20260904062931 22 75 4.8 8.0 0.00 0.00 0.00 83 1017.9
20260904062430 22 84 3.2 4.8 0.00 0.00 0.00 83 1017.9
20260904061930 22 62 3.2 4.8 0.00 0.00 0.00 83 1017.9
20260904061431 22 30 1.6 4.8 0.00 0.00 0.00 85 1018.0
20260904060931 21 11 1.6 4.8 0.00 0.00 0.00 86 1017.9
20260904060430 21 56 1.6 3.2 0.00 0.00 0.00 86 1017.9
20260904055931 21 57 3.2 4.8 0.00 0.00 0.00 87 1017.9
20260904055431 21 53 0.0 4.8 0.00 0.00 0.00 87 1017.8
20260904054930 21 53 1.6 3.2 0.00 0.00 0.00 88 1017.8
20260904054431 20 53 0.0 3.2 0.00 0.00 0.00 88 1017.7
20260904053931 20 53 1.6 3.2 0.00 0.00 0.00 89 1017.7
20260904053430 20 53 1.6 3.2 0.00 0.00 0.00 90 1017.7
20260904052930 20 53 1.6 3.2 0.00 0.00 0.00 91 1017.7
20260904052430 20 5 0.0 0.0 0.00 0.00 0.00 91 1017.7
20260904051930 20 5 0.0 3.2 0.00 0.00 0.00 91 1017.6
20260904051430 19 5 1.6 3.2 0.00 0.00 0.00 92 1017.6
20260904050932 19 5 1.6 4.8 0.00 0.00 0.00 92 1017.5
20260904050432 19 25 0.0 4.8 0.00 0.00 0.00 92 1017.5
20260904045431 19 28 0.0 3.2 0.00 0.00 0.00 92 1017.5
20260904044930 18 34 1.6 3.2 0.00 0.00 0.00 92 1017.4
20260904044430 19 297 0.0 1.6 0.00 0.00 0.00 92 1017.4
20260904043931 19 337 0.0 1.6 0.00 0.00 0.00 92 1017.5
20260904043430 19 33 1.6 3.2 0.00 0.00 0.00 92 1017.5
20260904042930 19 30 1.6 4.8 0.00 0.00 0.00 92 1017.4
20260904041930 19 30 0.0 0.0 0.00 0.00 0.00 92 1017.4
20260904041430 19 30 0.0 0.0 0.00 0.00 0.00 92 1017.4
20260904040931 19 30 0.0 1.6 0.00 0.00 0.00 92 1017.4
20260904035930 19 30 0.0 0.0 0.00 0.00 0.00 92 1017.3
20260904035430 19 30 0.0 0.0 0.00 0.00 0.00 92 1017.3
20260904034930 19 30 0.0 0.0 0.00 0.00 0.00 91 1017.3
20260904033430 20 30 0.0 0.0 0.00 0.00 0.00 91 1017.2
20260904032930 20 30 0.0 0.0 0.00 0.00 0.00 92 1017.1
20260904032430 19 30 0.0 0.0 0.00 0.00 0.00 91 1017.1
20260904031930 20 30 0.0 0.0 0.00 0.00 0.00 91 1017.2
20260904030930 20 30 0.0 0.0 0.00 0.00 0.00 91 1017.2
20260904025930 20 30 0.0 0.0 0.00 0.00 0.00 90 1017.2
20260904024930 20 30 0.0 0.0 0.00 0.00 0.00 90 1017.0
20260904024430 20 30 0.0 0.0 0.00 0.00 0.00 90 1017.0
20260904023930 20 30 0.0 0.0 0.00 0.00 0.00 90 1017.1
20260904023429 20 30 0.0 0.0 0.00 0.00 0.00 90 1017.0
20260904022930 20 30 0.0 0.0 0.00 0.00 0.00 90 1017.0
20260904022430 20 30 0.0 0.0 0.00 0.00 0.00 89 1017.0
20260904021931 20 30 0.0 0.0 0.00 0.00 0.00 90 1017.0
20260904021430 20 30 0.0 0.0 0.00 0.00 0.00 90 1017.1
20260904020931 20 30 0.0 0.0 0.00 0.00 0.00 89 1017.1
20260904020430 20 30 0.0 0.0 0.00 0.00 0.00 89 1016.9
20260904015930 20 30 0.0 0.0 0.00 0.00 0.00 88 1017.0
20260904014430 21 30 0.0 3.2 0.00 0.00 0.00 87 1016.9
20260904013929 21 30 0.0 0.0 0.00 0.00 0.00 87 1016.9
20260904013431 21 30 0.0 1.6 0.00 0.00 0.00 86 1016.9
20260904012931 21 30 0.0 1.6 0.00 0.00 0.00 86 1016.9
20260904011930 21 30 0.0 3.2 0.00 0.00 0.00 85 1016.9
20260904011429 21 30 0.0 3.2 0.00 0.00 0.00 85 1016.9
20260904010930 21 30 3.2 4.8 0.00 0.00 0.00 85 1016.8
20260904005930 21 30 1.6 3.2 0.00 0.00 0.00 85 1016.9
20260904005429 21 30 1.6 1.6 0.00 0.00 0.00 86 1016.9
20260904004931 21 30 1.6 3.2 0.00 0.00 0.00 86 1016.8
20260904004430 21 58 0.0 4.8 0.00 0.00 0.00 86 1016.9
20260904003930 21 108 0.0 0.0 0.00 0.00 0.00 86 1016.8
20260904003429 21 108 0.0 0.0 0.00 0.00 0.00 86 1016.8
20260904002930 21 108 0.0 0.0 0.00 0.00 0.00 86 1016.9
20260904002430 21 108 1.6 4.8 0.00 0.00 0.00 85 1016.9
20260904001432 22 108 1.6 3.2 0.00 0.00 0.00 85 1016.9
20260904000931 22 108 1.6 3.2 0.00 0.00 0.00 85 1017.0
20260904000430 21 108 0.0 0.0 0.00 0.00 0.00 86 1017.0
20260903235930 21 108 0.0 3.2 0.00 0.00 0.00 87 1017.0
20260903235429 21 108 1.6 4.8 0.00 0.00 0.00 88 1017.1
20260903234430 21 108 1.6 4.8 0.00 0.00 0.00 89 1017.1
20260903233929 21 108 3.2 4.8 0.00 0.00 0.00 89 1017.1
20260903233429 21 108 3.2 4.8 0.00 0.00 0.00 89 1017.2
20260903232930 21 107 4.8 4.8 0.00 0.00 0.00 90 1017.1
20260903232429 21 88 4.8 8.0 0.00 0.00 0.00 89 1017.2
20260903231929 21 88 3.2 4.8 0.00 0.00 0.00 88 1017.2
20260903231429 21 88 3.2 11.3 0.00 0.00 0.00 86 1017.2
20260903230929 22 90 3.2 9.7 0.00 0.00 0.00 83 1017.2
20260903230429 22 0 1.6 1.6 0.00 0.00 0.00 83 1017.2
20260903225929 22 0 1.6 4.8 0.00 0.00 0.00 82 1017.2
20260903225429 22 5 1.6 3.2 0.00 0.00 0.00 82 1017.1
20260903224930 22 349 3.2 4.8 0.00 0.00 0.00 82 1017.1
20260903224429 22 324 1.6 3.2 0.00 0.00 0.00 82 1017.1
20260903223929 22 312 3.2 4.8 0.00 0.00 0.00 83 1017.0
20260903223429 22 314 3.2 4.8 0.00 0.00 0.00 83 1017.0
20260903222929 22 349 0.0 3.2 0.00 0.00 0.00 82 1017.0
20260903222429 22 349 0.0 0.0 0.00 0.00 0.00 82 1016.9
20260903221429 22 349 0.0 0.0 0.00 0.00 0.00 82 1016.9
20260903220929 22 349 0.0 1.6 0.00 0.00 0.00 83 1016.9
20260903220429 22 349 0.0 1.6 0.00 0.00 0.00 83 1016.9
20260903215930 22 349 0.0 0.0 0.00 0.00 0.00 82 1016.8
20260903214930 23 349 0.0 0.0 0.00 0.00 0.00 81 1016.9
20260903214429 23 349 0.0 1.6 0.00 0.00 0.00 81 1016.9
20260903213928 23 349 0.0 0.0 0.00 0.00 0.00 80 1016.8
20260903213429 23 349 0.0 0.0 0.00 0.00 0.00 80 1016.8
20260903212429 23 349 0.0 1.6 0.00 0.00 0.00 79 1016.7
20260903211929 23 349 0.0 0.0 0.00 0.00 0.00 78 1016.7
20260903210929 23 349 0.0 1.6 0.00 0.00 0.00 79 1016.7
20260903205929 23 349 0.0 1.6 0.00 0.00 0.00 79 1016.7
20260903205429 23 349 0.0 1.6 0.00 0.00 0.00 79 1016.7
20260903204929 23 349 0.0 4.8 0.00 0.00 0.00 77 1016.7
20260903204429 23 349 0.0 4.8 0.00 0.00 0.00 78 1016.7
20260903203929 23 349 0.0 0.0 0.00 0.00 0.00 77 1016.7
20260903203428 23 349 0.0 0.0 0.00 0.00 0.00 78 1016.7
20260903202929 24 349 0.0 0.0 0.00 0.00 0.00 78 1016.7
20260903202429 24 349 0.0 0.0 0.00 0.00 0.00 77 1016.7
20260903201929 24 349 0.0 0.0 0.00 0.00 0.00 77 1016.6
20260903201428 25 349 0.0 0.0 0.00 0.00 0.00 76 1016.6
20260903200930 25 349 0.0 0.0 0.00 0.00 0.00 76 1016.5
20260903195929 25 349 0.0 0.0 0.00 0.00 0.00 75 1016.5
20260903194929 25 349 0.0 0.0 0.00 0.00 0.00 75 1016.5
20260903193928 25 349 0.0 0.0 0.00 0.00 0.00 75 1016.4
20260903192928 25 349 0.0 0.0 0.00 0.00 0.00 75 1016.4
20260903192429 25 349 0.0 0.0 0.00 0.00 0.00 75 1016.4
20260903191929 25 349 0.0 0.0 0.00 0.00 0.00 74 1016.4
20260903191429 26 349 0.0 0.0 0.00 0.00 0.00 74 1016.4
20260903190929 26 349 0.0 0.0 0.00 0.00 0.00 74 1016.3
20260903190429 26 349 0.0 0.0 0.00 0.00 0.00 73 1016.3
20260903185429 25 349 0.0 0.0 0.00 0.00 0.00 73 1016.2
20260903184928 26 349 0.0 0.0 0.00 0.00 0.00 74 1016.1
20260903184428 26 349 0.0 0.0 0.00 0.00 0.00 73 1016.1
20260903183930 26 349 0.0 0.0 0.00 0.00 0.00 73 1016.1
20260903183428 26 349 0.0 0.0 0.00 0.00 0.00 72 1016.0
20260903182928 26 349 0.0 1.6 0.00 0.00 0.00 72 1016.0
20260903182428 26 349 1.6 3.2 0.00 0.00 0.00 71 1015.9
20260903181928 26 349 1.6 3.2 0.00 0.00 0.00 71 1015.9
20260903181428 26 349 1.6 3.2 0.00 0.00 0.00 70 1015.9
20260903180929 27 349 0.0 0.0 0.00 0.00 0.00 69 1015.8
20260903180428 27 349 0.0 1.6 0.00 0.00 0.00 68 1015.8
20260903175928 27 349 0.0 1.6 0.00 0.00 0.00 67 1015.7
20260903175428 27 349 0.0 0.0 0.00 0.00 0.00 67 1015.7
20260903174929 27 349 0.0 1.6 0.00 0.00 0.00 66 1015.8
20260903174428 28 349 0.0 0.0 0.00 0.00 0.00 65 1015.7
20260903173929 28 349 0.0 1.6 0.00 0.00 0.00 64 1015.7
20260903173428 29 349 1.6 3.2 0.00 0.00 0.00 55 1015.7
20260903172929 30 339 3.2 4.8 0.00 0.00 0.00 55 1015.7
20260903172428 30 335 3.2 4.8 0.00 0.00 0.00 55 1015.7
20260903171928 30 326 1.6 4.8 0.00 0.00 0.00 55 1015.7
20260903171428 30 324 3.2 4.8 0.00 0.00 0.00 53 1015.6
20260903170428 31 299 4.8 9.7 0.00 0.00 0.00 52 1015.6
20260903165428 31 316 4.8 4.8 0.00 0.00 0.00 51 1015.6
20260903164928 31 300 4.8 8.0 0.00 0.00 0.00 50 1015.5
20260903164428 31 306 4.8 11.3 0.00 0.00 0.00 50 1015.5
20260903163928 31 297 1.6 11.3 0.00 0.00 0.00 50 1015.5
20260903163428 31 240 3.2 8.0 0.00 0.00 0.00 49 1015.4
20260903162929 32 219 3.2 4.8 0.00 0.00 0.00 50 1015.4
20260903162428 32 255 6.4 11.3 0.00 0.00 0.00 50 1015.4
20260903161929 32 252 4.8 9.7 0.00 0.00 0.00 51 1015.3
20260903160929 32 275 6.4 11.3 0.00 0.00 0.00 48 1015.3
20260903160428 32 272 3.2 9.7 0.00 0.00 0.00 49 1015.3
20260903155928 32 271 4.8 8.0 0.00 0.00 0.00 48 1015.3
20260903155429 32 249 8.0 12.9 0.00 0.00 0.00 48 1015.3
20260903154928 32 206 4.8 9.7 0.00 0.00 0.00 47 1015.3
20260903153927 32 289 4.8 11.3 0.00 0.00 0.00 46 1015.3
20260903153428 32 272 8.0 19.3 0.00 0.00 0.00 47 1015.4
20260903152927 32 230 4.8 19.3 0.00 0.00 0.00 48 1015.4
20260903152429 32 286 8.0 19.3 0.00 0.00 0.00 49 1015.4
20260903151928 32 277 9.7 24.1 0.00 0.00 0.00 49 1015.3
20260903151428 32 292 6.4 11.3 0.00 0.00 0.00 47 1015.3
20260903150927 32 250 1.6 8.0 0.00 0.00 0.00 44 1015.3
20260903150428 32 262 8.0 12.9 0.00 0.00 0.00 48 1015.4
20260903145928 32 237 8.0 11.3 0.00 0.00 0.00 49 1015.4
20260903145427 32 221 3.2 9.7 0.00 0.00 0.00 50 1015.4
20260903144929 32 245 4.8 4.8 0.00 0.00 0.00 51 1015.6
20260903144428 32 166 3.2 9.7 0.00 0.00 0.00 54 1015.6
20260903143927 32 107 6.4 11.3 0.00 0.00 0.00 53 1015.7
20260903143428 32 115 4.8 8.0 0.00 0.00 0.00 53 1015.8
20260903142928 32 93 3.2 4.8 0.00 0.00 0.00 54 1015.9
20260903142427 32 122 1.6 4.8 0.00 0.00 0.00 54 1016.0
20260903141928 32 94 3.2 8.0 0.00 0.00 0.00 54 1016.1
20260903141427 32 12 1.6 3.2 0.00 0.00 0.00 53 1016.1
20260903140929 31 52 3.2 9.7 0.00 0.00 0.00 53 1016.2
20260903140427 32 140 8.0 9.7 0.00 0.00 0.00 54 1016.1
20260903135927 32 191 3.2 4.8 0.00 0.00 0.00 55 1016.2
20260903134927 32 145 4.8 9.7 0.00 0.00 0.00 54 1016.2
20260903134428 32 147 3.2 8.0 0.00 0.00 0.00 54 1016.2
20260903133928 32 103 3.2 4.8 0.00 0.00 0.00 54 1016.3
20260903133427 31 110 4.8 12.9 0.00 0.00 0.00 55 1016.4
20260903132428 32 53 4.8 11.3 0.00 0.00 0.00 55 1016.4
20260903131928 32 324 3.2 8.0 0.00 0.00 0.00 54 1016.5
20260903131427 31 275 0.0 11.3 0.00 0.00 0.00 57 1016.5
20260903130928 31 70 6.4 11.3 0.00 0.00 0.00 55 1016.5
20260903130428 31 43 4.8 11.3 0.00 0.00 0.00 54 1016.6
20260903125927 31 74 6.4 11.3 0.00 0.00 0.00 56 1016.6
20260903125428 31 114 3.2 14.5 0.00 0.00 0.00 55 1016.6
20260903124428 31 97 8.0 11.3 0.00 0.00 0.00 55 1016.7
20260903123927 31 86 4.8 9.7 0.00 0.00 0.00 56 1016.8
20260903123427 31 99 6.4 11.3 0.00 0.00 0.00 56 1016.9
20260903122428 31 85 6.4 11.3 0.00 0.00 0.00 57 1016.7
20260903121927 31 105 9.7 14.5 0.00 0.00 0.00 58 1016.8
20260903121428 31 94 3.2 12.9 0.00 0.00 0.00 56 1016.8
20260903120928 31 106 3.2 9.7 0.00 0.00 0.00 57 1016.8
20260903120427 31 81 4.8 16.1 0.00 0.00 0.00 56 1016.9
20260903115427 31 111 6.4 9.7 0.00 0.00 0.00 58 1017.0
20260903114927 31 300 1.6 8.0 0.00 0.00 0.00 61 1017.0
20260903114427 31 294 1.6 4.8 0.00 0.00 0.00 59 1017.1
20260903113427 31 129 6.4 11.3 0.00 0.00 0.00 57 1017.1
20260903112927 31 125 8.0 12.9 0.00 0.00 0.00 58 1017.2
20260903112427 30 134 6.4 11.3 0.00 0.00 0.00 58 1017.2
20260903110929 30 54 8.0 12.9 0.00 0.00 0.00 61 1017.6
20260903110427 30 79 11.3 14.5 0.00 0.00 0.00 60 1017.6
20260903105427 30 81 9.7 19.3 0.00 0.00 0.00 61 1017.6
20260903104927 30 92 4.8 11.3 0.00 0.00 0.00 61 1017.6
20260903104427 30 20 1.6 11.3 0.00 0.00 0.00 64 1017.7
20260903103927 30 133 3.2 8.0 0.00 0.00 0.00 63 1017.7
20260903103426 30 111 4.8 11.3 0.00 0.00 0.00 63 1017.7
20260903102427 29 47 4.8 12.9 0.00 0.00 0.00 63 1017.9
20260903101927 29 82 6.4 12.9 0.00 0.00 0.00 63 1017.9
20260903101427 29 119 1.6 8.0 0.00 0.00 0.00 64 1018.0
20260903100927 29 101 8.0 14.5 0.00 0.00 0.00 64 1018.1
20260903095427 28 58 6.4 11.3 0.00 0.00 0.00 65 1018.3
20260903094426 28 81 4.8 11.3 0.00 0.00 0.00 63 1018.3
20260903093927 28 134 4.8 9.7 0.00 0.00 0.00 65 1018.4
20260903093426 28 57 1.6 4.8 0.00 0.00 0.00 66 1018.5
20260903092927 28 118 4.8 11.3 0.00 0.00 0.00 65 1018.5